Regional Weather Roundup
Issued by NWS

Home | Current Version | Previous Version | Text Only | Print | Product List | Glossary Off
Versions: 1 2 3 4 5 6 7 8 9 10 11 12 13 14 15 16 17 18 19 20 21 22 23 24 25 26 27 28 29 30 31 32 33 34 35 36 37 38 39 40 41 42 43 44 45 46 47 48 49 50

000
ASUS45 KBOU 100610
RWRCO

WEATHER ROUNDUP FOR COLORADO
NATIONAL WEATHER SERVICE DENVER/BOULDER CO
1200 AM MDT THU JUL 10 2014

NOTE: "FAIR" INDICATES FEW OR NO CLOUDS BELOW 12000 FEET WITH NO
SIGNIFICANT WEATHER AND/OR OBSTRUCTIONS TO VISIBILITY.

COZ001>005-013-030-031-100700-
...NORTHWEST COLORADO...

CITY           SKY/WX    TMP DP  RH WIND       PRES   REMARKS
CRAIG          MOCLDY    59  46  62 E5        30.15R
HAYDEN         MOCLDY    64  39  39 SE8       30.19S
MEEKER         MOCLDY    61  53  75 S3        30.19
MOUNT WERNER   MOCLDY    59  27  29 W7        30.52R
STEAMBOAT SPGS MOCLDY    57  45  63 CALM      30.22R
WALDEN         MOCLDY    54  43  66 SE6       30.30S
$$

COZ006>008-011-100700-
...WEST CENTRAL VALLEYS...

CITY           SKY/WX    TMP DP  RH WIND       PRES   REMARKS
GRAND JUNCTION MOCLDY    74  51  44 W8        30.09S
MONTROSE       MOCLDY    71  46  40 E9        30.17S
EAGLE          PTCLDY    63  43  48 SE7       30.22R
RIFLE          MOCLDY    69  43  38 SE9       30.12S
DELTA          MOCLDY    73  47  39 CALM      30.12R
NUCLA          MOCLDY    68  52  56 E7        30.21F
$$

COZ017>023-064>068-100700-
...SOUTHWEST COLORADO...

CITY           SKY/WX    TMP DP  RH WIND       PRES   REMARKS
DURANGO        CLOUDY    64  51  62 VRB3      30.29R
CORTEZ         CLEAR     71  49  45 SW10      30.20
PAGOSA SPRINGS MOCLDY    56  51  84 CALM      30.36S
TELLURIDE      MOCLDY    52  46  82 CALM      30.42S
WOLF CREEK PAS NOT AVBL
$$

COZ009-010-012-014-032>034-037-058>063-100700-
...CENTRAL COLORADO...

CITY           SKY/WX    TMP DP  RH WIND       PRES   REMARKS
ASPEN          PTCLDY    59  41  51 SE9       30.30
BUENA VISTA    PTCLDY    60  41  49 CALM      30.33R
COPPER MTN     CLEAR     54  32  43 S15       30.62S
BERTHOUD PASS  FAIR      45  32  61 W15       30.65F
COTTONWOOD PAS PTCLDY    61  36  39 W8        30.46F
GUNNISON       NOT AVBL
KREMMLING      PTCLDY    54  43  66 CALM      30.28S
LEADVILLE      CLEAR     47  34  60 NE6       30.45F
MONARCH PASS   PTCLDY    46  37  71 W15       30.73R
SALIDA         PTCLDY   N/A N/A N/A NW3       30.35F
SUNLIGHT       PTCLDY    54  36  50 CALM      30.53F
WILKERSON PASS PTCLDY    50  36  57 SW8       30.57F
$$

COZ069>075-100700-
...SAN LUIS VALLEY/SANGRE DE CRISTO MOUNTAINS...

CITY           SKY/WX    TMP DP  RH WIND       PRES   REMARKS
ALAMOSA        PTCLDY    57  46  66 CALM      30.32R
LA VETA PASS   PTCLDY    52  37  58 SW12G20   30.48F
SAGUACHE       NOT AVBL
$$

COZ035-036-038>040-100700-
...NORTHERN COLORADO FRONT RANGE...

CITY           SKY/WX    TMP DP  RH WIND       PRES   REMARKS
DENVER INTL AP MOCLDY    68  46  45 S10       30.03F
DMNS CITY PARK   N/A     71  46  41 S5        30.04S
AURORA         MOCLDY    70  47  42 SW13      30.07S
FRONT RANGE AP NOT AVBL
ERIE MUNI ARPT PTCLDY    66  49  53 CALM      30.02R
BOULDER MUN AP PTCLDY    73  41  31 CALM      30.02R
CENTENNIAL     PTCLDY    72  42  34 S9        30.08
BROOMFIELD     PTCLDY    70  45  40 SE5       30.07R
FORT COLLINS   CLEAR     63  55  77 NW5       30.02R
LONGMONT       CLEAR     67  49  51 NE3       30.02S
$$

COZ041-046-047-076>085-087-088-100700-
...PIKES PEAK/PALMER DIVIDE AND SOUTHERN FOOTHILLS...

CITY           SKY/WX    TMP DP  RH WIND       PRES   REMARKS
COLO. SPRINGS  CLOUDY    69  42  37 N6        30.13R
A. F. ACADEMY  MOCLDY    66  40  39 N5        30.16R
ELLICOTT       NOT AVBL
FALCON         MOCLDY    64  43  45 NW3       30.19R
FORT CARSON    MOCLDY    74  40  28 N7        30.10R
LIMON          PTCLDY    63  54  72 SE15      30.11S
MONUMENT HILL  MOCLDY    61  37  41 W7        30.19R
TRINIDAD       PTCLDY    68  48  48 NW6       30.14R
$$

COZ042>045-048>051-090-091-100700-
...NORTHEAST COLORADO...

CITY           SKY/WX    TMP DP  RH WIND       PRES   REMARKS
GREELEY ARPT   CLEAR     64  50  59 CALM      30.00R
AKRON          CLEAR     69  55  60 S21G29    30.01
BURLINGTON     CLOUDY    70  51  51 S26G39    30.01R
WRAY           CLEAR     70  52  52 SW8       29.96S
STERLING       CLEAR     63  57  82 CALM      29.97R
HOLYOKE        CLEAR     66  59  77 S6        29.96S
FORT MORGAN    CLEAR     62  54  75 S5        30.00S
$$

COZ086-089-092>099-100700-
...SOUTHEAST COLORADO...

CITY           SKY/WX    TMP DP  RH WIND       PRES   REMARKS
PUEBLO         PTCLDY    72  49  44 NE6       30.03R
LA JUNTA       CLEAR     79  51  37 SE10G24   30.05R
LAMAR          CLOUDY    74  50  42 E15       30.04F
SPRINGFIELD      N/A     71  52  50 SW16G24   30.07S
$$



USA.gov is the U.S. government's official web portal to all federal, state and local government web resources and services.